Flag for Switzerland Weather past 2 weeks in Köniz, Bern, Switzerland

Now
39 °F

Light rain. Broken clouds.


Feels Like: 39 °F
Forecast: 30 / 36 °F
Wind: 1 mph from North

Location: Bern / Belp

Current Time: Mar 4, 2015 at 12:56:49 PM

Latest Report: Mar 4, 2015 at 12:20 PM


Visibility: N/A

Pressure: 30.33 "Hg

Humidity: 81%

Dew point: 34 °F

Location of KönizLocation

Historic Weather in Köniz — Graph

°F

Köniz temperature yesterday

Maximum temperature yesterday: 52 °F (at 2:50 PM)
Minimum temperature yesterday: 32 °F (at 4:20 AM)
Average temperature yesterday: 42 °F

Past Weeks' High & Low Weather Summary

 TemperatureHumidityPressure
High52 °F (Feb 20, 2:20 PM)100% (Feb 17, 8:50 PM)30.60 "Hg (Feb 17, 8:50 PM)
Low21 °F (Feb 20, 7:20 AM)24% (Feb 20, 3:50 PM)29.56 "Hg (Feb 21, 9:20 AM)
Average36 °F83%30.04 "Hg
* Reported Feb 17 11:20 AM — Mar 4 11:50 AM, Köniz, Weather by CustomWeather, © 2015

Note: Actual official high and low records may vary slightly from our data, if they occured in-between our weather recording intervals... More about our weather records

Advertising

Köniz weather history for previous 24 hours

 ConditionsComfort  
Time TempWeatherWind HumidityBarometerVisibility
11:50 AM
Wed, Mar 4
39 °FBroken clouds.1 mph81%30.33 "HgN/A
11:20 AM39 °FBroken clouds.2 mph81%30.33 "HgN/A
10:50 AM37 °FBroken clouds.2 mph87%30.33 "HgN/A
10:20 AM37 °FPartly sunny.3 mph93%30.30 "HgN/A
9:50 AM37 °FPartly sunny.5 mph87%30.30 "HgN/A
9:20 AM37 °FBroken clouds.3 mph93%30.30 "HgN/A
8:50 AM36 °FPartly sunny.7 mph93%30.30 "HgN/A
8:20 AM36 °FBroken clouds.5 mph93%30.30 "HgN/A
7:50 AM34 °FLight rain. Broken clouds.3 mph100%30.27 "Hg4 mi
7:20 AM34 °FLight snow. Mostly cloudy.2 mph100%30.27 "Hg4 mi
6:50 AM34 °FLight snow. Overcast.2 mph100%30.27 "Hg4 mi
6:20 AM34 °FLight rain. Mostly cloudy.2 mph100%30.27 "HgN/A
5:50 AM34 °FLight rain. Mostly cloudy.3 mph100%30.27 "HgN/A
5:20 AM34 °FLight snow. Partly cloudy.1 mph93%30.27 "HgN/A
4:50 AM36 °FRain. Passing clouds.6 mph93%30.24 "Hg6 mi
4:20 AM37 °FRain. Partly cloudy.9 mph93%30.24 "HgN/A
3:50 AM41 °FRain. Passing clouds.12 mph87%30.21 "Hg4 mi
3:20 AM41 °FLight rain. Passing clouds.5 mph81%30.21 "HgN/A
2:50 AM41 °FLight rain. Passing clouds.9 mph81%30.21 "HgN/A
2:20 AM43 °FDrizzle. Overcast.7 mph76%30.21 "HgN/A
1:50 AM43 °FDrizzle. Overcast.5 mph76%30.21 "HgN/A
1:20 AM43 °FPassing clouds.12 mph71%30.21 "HgN/A
12:50 AM41 °FPassing clouds.13 mph76%30.21 "HgN/A
12:20 AM41 °FQuite cool.2 mph76%30.21 "HgN/A
11:50 PM
Tue, Mar 3
41 °FQuite cool.5 mph76%30.21 "HgN/A
11:20 PM41 °FPassing clouds.5 mph76%30.18 "HgN/A
10:50 PM41 °FPassing clouds.2 mph70%30.18 "HgN/A
10:20 PM46 °FPassing clouds.1 mph53%30.18 "HgN/A
9:50 PM46 °FPassing clouds.3 mph50%30.18 "HgN/A
9:20 PM46 °FPassing clouds.3 mph50%30.18 "HgN/A
8:50 PM48 °FPassing clouds.3 mph46%30.18 "HgN/A
8:20 PM46 °FPassing clouds.1 mph53%30.18 "HgN/A
7:50 PM46 °FPassing clouds.1 mph53%30.18 "HgN/A
7:20 PM43 °FPassing clouds.1 mph71%30.18 "HgN/A
6:50 PM46 °FPassing clouds.2 mph57%30.15 "HgN/A
6:20 PM48 °FPassing clouds.1 mph50%30.15 "HgN/A
5:50 PM48 °FBroken clouds.6 mph54%30.15 "HgN/A
5:20 PM50 °FBroken clouds.7 mph50%30.15 "HgN/A
4:50 PM50 °FScattered clouds.8 mph54%30.15 "HgN/A
4:20 PM50 °FScattered clouds.9 mph54%30.15 "HgN/A
3:50 PM52 °FScattered clouds.12 mph47%30.15 "HgN/A
3:20 PM52 °FScattered clouds.10 mph50%30.15 "HgN/A
2:50 PM52 °FPassing clouds.10 mph54%30.18 "HgN/A
2:20 PM50 °FScattered clouds.7 mph50%30.18 "HgN/A
1:50 PM50 °FScattered clouds.8 mph54%30.18 "HgN/A
1:20 PM48 °FScattered clouds.9 mph54%30.18 "HgN/A
12:50 PM50 °FScattered clouds.8 mph54%30.21 "HgN/A
12:20 PM48 °FScattered clouds.9 mph62%30.21 "HgN/A
Weather by CustomWeather, © 2015

See weather overviewHow to use our weather pages